Tracking 32954 objects as of 19-Jan-2026
HD Live streaming from Space Station
objects crossing your sky now

CZ-6A DEB

Track CZ-6A DEB now!
10-day predictions


NORAD ID: 54273
Int'l Code: 2022-151Q
Perigee: 804.6 km
Apogee: 840.1 km
Inclination: 98.8 °
Period: 101.2 minutes
Semi major axis: 7193 km
RCS: Unknown
Launch date: November 11, 2022
Source: People's Republic of China (PRC)
Launch site: Taiyaun Space Center, China (TSC)

Note: This is SATELLITE DEBRIS
Your satellite tracking list
Your tracking list is empty




NASA's NSSDC Master Catalog

Two Line Element Set (TLE):
1 54273U 22151Q   26019.57476389  .00002945  00000-0  13232-2 0  9992
2 54273  98.7976  34.6753 0024704 337.7797  22.2308 14.22998390164394
Source of the keplerian elements: AFSPC